GFSGBSN_850_thetae_057.txt.gz
Theta_e
300 304 314 320 321 321 321 323 322 320 315 312 312 308 308 309 308 308 308 309 310 311 311 311 310 310 308 313 315 318 319 317 317 315 316 317 318 318 315 315 317 316 325 326 325 325 326
299 300 300 306 316 320 319 321 323 322 319 314 313 310 307 308 308 308 308 309 311 311 311 311 310 309 308 319 318 319 318 318 320 318 317 318 319 319 318 318 318 320 323 324 324 323 325
299 299 299 299 302 312 317 319 321 323 322 318 313 312 307 307 308 307 308 310 312 311 311 310 309 308 309 309 318 319 320 319 320 320 320 319 320 319 321 319 320 322 321 323 323 324 323
300 299 299 299 299 301 310 314 319 321 322 320 315 313 309 306 307 307 309 311 312 311 310 309 309 310 310 316 317 318 320 320 321 321 320 320 320 320 320 321 319 319 320 321 322 323 323
300 300 299 299 299 299 299 307 315 319 320 322 319 314 311 306 306 307 309 312 311 310 310 309 309 320 319 320 319 317 318 319 320 320 320 320 319 320 321 320 318 319 320 320 320 323 322
299 299 300 299 299 299 299 300 306 317 319 321 321 314 313 307 306 307 310 312 311 311 310 310 310 315 318 317 318 317 318 318 320 321 320 320 320 320 318 317 319 319 320 319 318 320 321
300 300 299 299 299 299 299 299 301 312 317 319 322 316 314 308 306 308 310 311 320 322 316 314 315 312 316 319 320 319 319 319 318 320 320 321 319 320 319 318 319 319 319 319 318 317 319
301 302 300 302 299 299 298 299 299 302 315 318 320 319 314 309 306 308 311 312 319 317 322 321 323 322 317 318 319 319 319 319 319 321 320 318 320 321 321 320 320 319 320 319 320 319 318
302 302 302 301 301 301 301 299 299 299 308 318 319 321 314 310 306 309 312 312 312 316 322 321 320 322 318 317 318 319 319 319 319 321 321 321 322 321 321 322 323 322 321 320 320 319 316
302 301 302 303 304 303 305 307 300 299 305 316 318 321 315 309 307 316 317 316 311 316 322 322 321 322 319 315 319 319 319 318 319 320 320 321 321 321 321 322 321 322 322 322 322 320 318
301 301 300 302 303 305 304 307 304 300 303 313 318 321 315 308 313 319 323 319 317 319 328 324 322 319 316 318 319 318 319 319 317 320 321 322 321 322 322 322 322 323 322 322 322 321 321
298 301 301 301 302 303 305 305 306 305 306 313 316 320 315 309 308 317 321 324 322 327 328 322 320 317 318 319 319 318 318 318 318 318 319 320 321 320 322 321 321 323 322 323 323 322 322
296 298 301 300 301 302 305 306 306 304 309 313 315 320 315 310 307 319 317 324 325 328 321 320 317 318 318 318 318 318 317 317 316 318 319 319 320 320 322 322 321 321 322 324 324 323 324
297 296 298 300 300 301 302 305 305 304 306 312 315 319 316 311 314 321 314 324 327 321 322 320 318 318 318 318 318 318 316 316 316 317 317 321 322 320 321 321 322 321 322 322 326 326 323
297 296 296 298 300 300 302 303 304 304 304 312 316 318 316 313 315 318 322 323 320 322 320 321 317 318 318 318 319 318 316 316 316 316 317 321 323 321 323 321 320 322 325 322 323 323 320
295 296 295 296 301 300 301 304 305 304 303 311 316 316 316 315 309 316 321 320 322 320 321 322 320 318 318 318 318 318 317 317 317 317 318 323 324 322 323 322 320 321 321 322 320 319 320
294 295 295 296 300 300 301 302 306 303 303 311 315 314 316 316 310 316 318 320 320 321 321 322 321 319 318 318 318 318 319 318 317 322 320 320 321 322 323 323 321 320 319 319 318 320 319
294 294 295 297 298 300 300 302 305 303 303 308 314 315 314 311 315 315 317 317 319 321 321 322 321 321 320 318 319 318 319 318 319 321 321 321 321 322 324 321 319 319 320 322 317 320 320
294 294 295 297 299 300 300 302 304 303 303 308 314 315 314 311 312 314 315 317 318 321 321 322 322 321 320 320 321 320 319 323 321 320 321 322 320 318 320 319 321 321 319 319 319 319 320
293 294 295 296 299 299 300 303 304 303 303 309 314 315 317 316 311 313 315 315 317 318 320 321 322 321 321 320 320 322 323 322 322 320 319 322 322 319 318 318 319 322 320 319 318 316 319
294 294 295 296 298 299 300 304 304 303 302 308 313 314 318 319 317 315 314 315 318 320 321 321 321 321 321 320 320 320 323 322 322 320 320 319 319 319 317 318 320 320 321 320 320 319 318
295 294 295 296 296 298 298 301 304 303 301 305 312 316 319 320 318 318 315 315 317 320 321 322 321 321 320 320 319 319 323 324 322 320 321 320 321 321 322 321 319 318 319 319 318 318 318
295 294 295 295 295 295 297 301 303 303 301 304 311 315 317 319 319 319 318 316 318 320 321 321 319 321 322 320 323 322 324 323 322 321 320 321 321 317 321 314 315 313 316 317 317 317 317
295 294 295 295 295 294 296 301 302 302 302 305 309 313 318 317 319 319 317 316 319 320 323 321 319 320 323 323 322 322 322 321 323 322 322 322 321 315 314 312 311 316 316 315 316 315 313
294 294 294 294 294 294 297 302 302 301 301 304 311 312 318 310 318 319 316 317 317 319 322 322 322 322 323 323 322 321 318 315 318 321 320 320 317 315 312 313 316 316 315 314 314 314 313
294 293 293 294 296 297 301 301 302 299 301 302 309 313 314 317 319 318 316 317 319 322 323 323 323 323 324 323 319 320 319 320 321 318 317 318 317 311 311 314 311 315 314 315 314 312 314
293 293 293 299 300 300 300 301 299 298 300 301 303 307 309 319 319 319 316 316 320 322 321 322 322 323 322 310 313 314 315 319 319 319 315 310 310 310 307 310 313 318 314 314 312 312 315
294 293 296 299 299 300 300 298 298 298 300 300 302 307 312 316 320 320 317 318 321 322 319 321 320 321 321 313 314 312 311 316 317 322 317 315 313 310 313 316 315 318 314 313 315 316 315
298 299 300 300 300 298 297 298 298 299 301 301 303 305 309 310 318 321 321 318 321 322 323 321 320 321 323 316 314 313 316 311 316 315 319 318 318 316 315 315 316 317 316 315 315 315 315

GFSGBSN_850_thetae_060.txt.gz
Theta_e
299 300 300 303 312 317 320 319 320 322 322 320 317 312 312 307 308 309 308 309 309 310 311 310 310 310 309 309 309 316 319 318 318 317 314 316 317 317 315 315 315 314 325 326 326 324 326
300 300 300 300 300 306 313 318 320 317 323 322 320 316 313 309 307 308 308 308 309 311 311 310 310 309 308 315 316 319 320 319 320 320 317 316 318 318 318 319 318 320 324 323 324 325 324
300 300 300 300 299 299 301 308 315 316 319 322 322 320 314 312 307 307 308 308 309 311 310 310 309 309 308 309 310 317 319 320 320 320 320 320 319 319 320 320 320 323 322 321 321 323 322
300 299 300 300 299 299 299 299 305 311 316 320 321 322 318 313 309 306 307 308 309 311 310 310 309 308 310 315 315 317 319 320 320 321 321 320 320 320 319 320 318 318 317 319 321 322 322
300 300 299 300 300 299 299 299 299 305 308 317 320 320 320 314 311 306 307 308 310 311 310 309 308 314 315 319 315 317 320 319 319 319 320 319 319 320 320 318 316 317 318 319 323 321 321
300 299 299 299 300 300 299 299 299 299 305 314 315 319 321 316 313 307 306 308 311 313 316 311 310 311 314 316 319 316 318 318 318 320 320 320 320 318 316 315 319 318 319 319 320 322 321
304 303 300 299 299 300 299 299 299 299 301 308 318 314 321 318 314 307 306 310 315 321 318 319 313 308 313 317 319 319 318 318 318 320 318 319 317 318 318 319 319 319 319 318 317 317 321
303 304 304 302 301 301 299 300 299 299 298 302 316 314 320 320 314 307 306 309 315 314 316 317 317 320 319 320 318 319 319 319 319 319 319 318 318 319 320 320 321 321 321 320 318 316 319
301 302 302 303 304 303 301 299 299 298 298 299 310 314 318 320 315 307 308 312 315 312 317 316 316 316 317 319 319 318 319 319 319 319 319 319 319 320 321 321 321 321 320 319 318 318 317
302 300 301 302 303 305 306 302 300 299 298 299 305 313 317 319 314 307 317 322 314 316 319 320 321 319 318 316 315 318 318 318 319 318 319 319 320 320 320 321 320 320 320 320 320 317 315
299 302 300 300 301 302 303 304 305 306 302 300 303 315 317 318 310 314 321 323 316 319 313 319 321 321 319 315 318 318 318 318 318 320 319 319 319 320 320 320 320 321 320 321 321 319 319
297 301 300 299 301 302 303 303 305 306 306 303 304 316 319 318 315 310 319 322 319 323 318 324 322 318 315 315 317 318 318 318 317 318 319 317 320 319 319 320 320 319 320 321 320 319 322
296 299 300 299 299 301 301 303 304 305 307 306 307 315 319 318 316 308 316 321 321 324 320 321 318 315 316 316 317 317 316 315 315 317 318 319 319 319 321 320 319 320 319 320 320 320 322
296 296 298 300 298 299 301 301 302 304 305 305 309 313 318 318 315 314 317 322 323 320 321 321 316 316 316 316 316 316 315 314 315 316 315 318 319 320 320 320 320 321 319 319 322 322 320
295 296 296 299 298 297 300 301 302 303 305 305 309 313 316 315 315 314 319 322 317 321 319 318 316 317 316 317 317 316 315 314 314 314 315 319 322 321 320 321 319 320 321 321 323 320 319
294 295 296 296 299 297 297 300 301 302 305 305 306 311 313 317 316 310 319 317 319 320 320 321 319 317 317 316 316 316 316 315 315 314 315 319 322 321 321 321 319 318 319 322 321 318 318
296 295 295 296 296 298 296 299 301 302 304 304 306 311 312 316 315 310 317 316 317 317 319 322 321 318 317 317 316 316 317 316 315 317 317 319 318 319 321 321 319 318 319 319 318 316 318
298 296 295 296 295 296 296 297 300 301 304 303 306 313 312 315 312 311 316 316 315 317 318 321 321 321 318 316 316 316 317 317 318 319 319 319 318 320 321 320 320 318 319 318 317 318 317
300 296 296 295 295 295 296 295 301 301 305 303 309 312 314 316 314 310 312 316 316 316 318 320 321 321 319 319 317 317 317 321 320 319 318 319 319 319 321 318 318 320 317 317 318 314 316
301 298 295 295 295 295 296 296 301 302 305 303 310 313 314 314 315 310 311 314 317 315 316 318 320 320 320 320 318 317 321 321 320 319 320 319 318 316 320 318 316 319 320 317 316 313 316
301 299 296 295 295 295 296 297 300 301 304 303 311 313 313 316 314 312 311 313 315 316 315 318 320 320 321 320 318 319 322 321 321 318 319 317 318 318 317 317 319 319 319 319 319 317 317
302 299 296 295 294 295 296 299 300 300 304 304 311 313 314 315 313 312 311 312 314 314 315 315 318 320 320 318 317 317 321 320 319 319 318 318 317 318 319 316 316 318 317 316 317 317 316
302 299 297 295 294 295 296 299 300 301 304 305 305 311 316 313 314 314 312 312 313 313 315 314 319 320 320 320 319 318 321 322 320 318 318 318 318 314 318 312 315 315 315 316 316 316 316
301 298 296 295 294 295 296 299 300 301 304 305 304 310 314 315 316 315 314 313 313 313 314 317 314 318 319 321 321 321 320 320 320 319 319 318 317 311 313 310 314 316 315 315 314 312 312
299 298 296 295 294 296 297 298 298 301 302 304 305 310 314 310 316 318 315 316 315 313 316 314 319 320 320 321 318 318 315 316 319 317 318 319 313 313 312 313 315 315 315 311 312 313 312
298 297 295 295 294 296 296 297 297 300 302 303 305 307 312 315 316 317 317 316 316 316 316 321 321 323 322 318 315 318 318 318 320 317 314 315 312 313 312 311 311 313 313 313 311 311 313
298 296 295 295 295 296 296 296 296 301 304 303 303 308 308 312 318 317 317 316 315 315 317 322 322 323 323 310 314 313 316 317 318 316 312 309 309 311 304 306 309 311 314 313 311 310 314
297 295 295 295 295 295 295 295 296 301 304 303 302 303 305 310 316 318 317 316 315 315 317 319 320 318 315 314 315 315 310 315 315 317 313 313 312 310 309 304 313 314 313 312 311 315 316
295 295 294 294 294 294 295 297 300 303 303 303 303 302 305 306 311 314 320 318 315 315 319 321 320 318 319 315 312 313 315 307 313 316 317 316 312 312 313 312 312 314 315 315 315 315 315

GFSGBSN_850_thetae_063.txt.gz
Theta_e
299 299 299 299 299 301 311 315 319 318 319 321 322 321 319 313 312 308 308 308 308 308 310 311 310 310 310 309 310 313 318 318 317 316 314 315 316 317 315 315 315 312 322 324 326 326 325
300 299 299 299 299 299 300 305 312 317 319 318 320 322 321 319 313 311 307 308 308 308 310 311 310 309 309 310 312 317 319 319 319 318 316 315 318 318 317 316 317 320 322 321 324 324 324
299 300 300 300 299 299 299 299 302 307 315 317 314 320 322 321 317 313 308 307 307 308 311 310 310 309 309 310 311 319 319 319 319 320 319 319 319 319 319 318 319 322 320 320 322 323 321
301 300 299 299 300 299 299 299 299 299 304 313 314 318 320 321 320 315 311 306 307 308 311 310 309 309 309 310 310 316 318 318 320 320 320 320 320 319 319 319 317 316 317 322 320 321 322
303 302 300 299 299 299 300 299 299 299 299 304 309 312 318 319 321 317 313 307 307 308 311 310 309 309 310 314 316 316 318 318 319 319 318 319 318 319 318 317 314 314 316 320 322 320 320
304 304 304 302 300 300 300 300 299 299 299 299 302 306 317 316 321 319 314 306 307 310 314 316 311 311 309 315 318 318 317 319 317 320 319 319 319 316 314 314 317 317 317 318 320 319 320
303 304 304 304 304 302 300 300 300 299 299 299 299 305 316 314 320 319 314 306 311 319 318 317 312 310 310 314 317 318 318 317 317 319 318 318 316 316 317 317 318 320 319 318 317 315 320
300 303 304 304 304 304 304 305 303 300 299 299 298 303 314 313 319 320 314 306 310 313 312 314 314 316 318 319 319 319 318 317 319 318 318 317 318 317 319 319 320 320 320 319 318 316 318
299 299 301 303 302 303 304 305 303 305 300 298 298 301 314 313 318 319 314 309 318 317 313 315 315 316 315 315 319 319 318 318 317 317 317 317 318 318 320 320 320 319 320 319 319 316 317
296 296 299 301 303 302 303 304 304 305 304 299 298 299 314 313 316 318 312 319 317 313 314 316 321 318 316 317 317 318 318 319 318 317 317 318 318 319 320 319 319 320 318 318 319 315 317
295 296 296 299 303 301 301 303 303 305 305 303 303 299 314 312 317 311 317 318 316 318 310 313 320 319 317 316 316 316 317 318 316 318 317 317 319 319 319 318 318 319 319 319 320 318 318
299 297 295 297 301 301 301 301 302 303 305 305 307 301 313 314 317 317 317 316 318 321 316 318 320 319 315 314 316 317 317 318 317 318 318 316 318 317 317 319 318 319 320 318 317 317 318
300 299 298 295 296 299 301 300 301 302 303 305 308 303 311 314 317 318 315 316 323 322 315 321 320 316 316 314 314 316 315 314 314 315 317 317 318 318 319 320 318 318 317 318 318 318 319
300 299 299 296 295 297 301 300 300 301 302 304 306 307 309 314 317 316 311 321 321 317 319 320 316 315 314 315 315 315 313 313 313 314 313 316 317 318 318 319 319 320 317 317 321 320 317
302 300 299 299 294 297 299 300 300 301 302 304 306 306 309 313 317 316 316 321 316 317 320 314 315 315 315 316 315 315 313 313 312 313 315 317 318 320 320 320 317 320 320 318 319 317 319
302 302 300 300 295 297 298 301 298 300 301 303 305 305 307 311 317 317 315 318 318 318 320 320 316 315 315 315 316 315 314 314 314 313 313 315 319 320 319 320 319 317 318 320 318 319 318
302 302 300 300 296 295 297 300 299 299 301 303 306 305 307 310 315 313 314 315 316 317 317 321 321 320 315 315 315 314 315 315 314 314 314 317 315 316 320 319 318 319 318 317 317 314 317
302 303 302 300 299 295 296 297 299 298 301 303 305 306 309 309 314 313 312 314 314 315 315 318 320 321 321 315 315 315 316 316 316 316 315 316 315 315 318 318 318 317 317 316 315 317 315
302 303 302 300 300 295 296 297 299 297 301 303 304 307 310 311 314 314 312 312 315 315 315 317 320 320 319 316 315 315 315 316 319 316 317 317 316 317 317 317 318 319 316 317 316 312 315
302 302 302 302 300 297 295 295 298 297 300 304 304 308 312 312 312 314 313 313 314 315 315 315 317 318 320 319 317 316 317 320 319 318 317 317 316 317 317 317 317 319 319 316 316 314 315
302 303 302 302 300 298 296 295 295 297 299 300 304 307 311 311 312 314 312 312 314 316 315 314 314 316 319 320 318 317 320 320 319 316 317 316 318 316 316 316 317 317 318 316 316 315 316
302 303 303 301 300 298 296 296 296 296 297 298 303 309 311 312 312 313 312 312 313 314 314 314 315 318 315 318 318 317 320 319 319 318 317 316 315 316 317 316 315 318 317 316 316 316 315
303 303 303 301 301 299 296 295 295 295 295 298 303 308 310 312 312 312 313 311 312 313 314 313 313 315 315 318 319 319 319 319 317 317 316 316 315 312 315 313 314 314 313 315 315 314 314
302 303 302 301 300 298 296 295 295 296 296 302 303 306 311 310 312 311 311 312 312 312 313 314 313 313 314 316 319 319 318 318 318 317 316 315 313 309 311 310 313 314 314 314 313 312 310
303 303 302 301 300 298 295 295 295 296 297 299 303 305 311 307 312 314 311 311 311 312 313 312 314 312 314 317 317 318 314 317 317 316 318 316 311 311 312 313 313 317 314 312 311 312 312
304 302 301 301 299 297 294 294 295 297 299 300 303 304 307 311 313 314 312 312 311 311 312 312 312 313 319 316 313 317 319 320 321 317 313 313 310 312 307 311 314 315 313 312 310 311 312
302 301 300 300 299 296 294 294 296 297 300 300 303 305 305 309 313 314 314 313 313 313 313 313 318 321 320 308 311 311 315 318 317 316 313 310 308 311 305 307 312 311 312 312 310 310 312
301 300 300 299 297 295 295 295 297 298 299 299 301 304 307 307 311 315 316 316 314 314 314 316 320 318 312 313 313 311 309 315 315 315 313 315 313 308 304 304 316 312 312 311 309 312 314
300 299 298 297 295 295 296 297 298 298 299 299 300 303 305 304 308 311 315 316 315 315 314 319 317 318 318 314 310 312 312 308 312 315 314 315 312 313 312 312 312 313 312 314 314 315 315

GFSGBSN_850_thetae_069.txt.gz
Theta_e
303 304 303 301 300 300 300 299 299 299 301 306 314 316 314 316 316 320 321 320 316 311 307 307 308 308 310 310 310 311 314 317 316 315 314 315 316 316 317 315 313 312 316 321 318 323 323
306 305 305 305 303 302 300 300 299 299 299 301 306 311 314 314 316 312 319 320 320 315 310 307 307 308 311 309 310 309 316 318 318 317 314 314 315 316 316 316 317 318 320 323 324 324 323
304 306 306 306 306 306 304 302 301 299 299 299 300 305 308 312 312 310 315 318 319 319 313 307 306 307 310 311 310 311 318 318 319 318 318 318 317 317 317 317 320 320 323 321 322 323 322
303 303 303 305 306 305 305 305 304 301 300 299 299 299 304 306 309 308 311 314 315 318 317 309 307 308 310 311 310 313 317 318 318 318 319 319 319 318 317 317 316 320 319 323 320 321 320
301 301 302 303 304 305 305 305 305 304 301 300 299 298 299 304 305 307 307 310 313 316 316 308 309 310 310 311 311 311 314 316 317 318 317 317 318 317 317 317 318 316 319 320 320 320 320
300 300 301 301 302 303 305 304 305 305 303 301 301 299 298 299 305 305 308 309 314 314 310 311 313 312 311 313 316 316 315 315 317 318 317 317 317 317 315 317 320 319 319 318 319 319 320
300 300 300 300 301 302 302 305 304 304 305 304 301 300 299 298 300 305 305 309 309 311 315 314 314 313 312 312 314 317 316 316 317 317 318 316 319 321 319 317 316 318 319 320 318 317 318
302 301 300 299 298 299 301 302 305 304 304 304 305 303 302 299 300 306 312 315 315 311 312 312 311 313 314 316 317 318 317 316 316 317 317 318 320 317 315 316 318 319 320 320 319 317 318
301 302 301 300 299 298 298 300 301 304 303 304 304 306 304 300 299 308 309 312 315 312 314 316 314 312 311 312 313 316 317 316 316 316 318 319 318 316 319 319 319 320 320 320 320 317 316
298 300 301 302 300 299 298 297 300 301 303 302 303 305 305 302 301 308 308 313 313 314 314 312 313 314 312 313 314 314 317 317 316 318 317 318 316 318 319 319 319 320 318 318 319 319 320
292 295 300 300 302 301 300 297 297 298 300 302 302 304 305 304 313 313 312 314 315 316 310 311 318 316 315 314 314 315 317 317 318 316 317 318 318 318 319 319 318 320 318 319 319 318 318
292 293 296 300 300 302 301 300 297 297 297 301 302 303 305 305 308 311 314 314 315 320 317 313 318 317 317 316 314 315 316 316 316 317 317 316 316 317 319 317 317 317 319 317 317 319 323
299 297 297 300 300 300 301 301 299 297 296 300 302 302 304 306 304 309 315 315 320 319 314 314 320 317 316 316 313 314 315 316 318 319 319 316 317 317 317 319 317 318 319 321 322 323 323
300 301 300 300 300 300 300 301 300 299 297 298 301 301 303 305 308 309 310 315 321 316 316 315 315 316 315 313 313 313 314 316 312 314 315 318 318 317 316 319 319 319 320 323 320 321 320
300 300 300 300 300 300 300 301 302 299 297 297 301 300 302 304 306 310 313 317 316 316 315 315 314 318 316 313 313 314 315 316 315 314 318 316 316 316 318 318 319 320 321 317 319 317 322
300 300 300 300 300 301 301 301 302 300 299 297 300 300 301 303 305 309 313 314 316 315 317 319 320 315 319 314 314 315 314 313 315 313 314 316 318 318 319 318 317 319 319 322 320 321 321
300 300 301 301 300 300 301 301 301 301 299 297 299 301 302 302 305 308 312 313 314 315 316 317 321 321 315 315 315 314 315 313 314 312 313 315 317 316 319 321 321 320 320 317 318 319 322
301 301 301 301 301 300 301 302 301 302 299 296 300 302 302 302 307 308 310 311 311 314 315 316 316 319 320 314 314 315 316 316 312 313 315 316 317 317 319 316 316 317 320 319 324 320 317
301 301 301 301 301 301 301 302 302 302 299 297 301 301 303 303 307 309 309 311 312 313 314 315 316 316 318 318 314 314 314 314 312 314 316 316 315 317 316 316 317 320 317 316 316 316 319
301 302 302 302 302 301 301 301 302 302 299 297 301 302 304 305 306 307 309 310 312 312 313 314 315 315 317 318 316 315 315 314 312 313 314 315 316 317 318 317 317 319 319 317 319 321 321
302 303 304 303 303 302 301 301 302 302 298 298 301 303 304 306 305 306 308 309 311 312 313 313 315 316 317 317 318 316 316 318 316 315 314 317 318 316 315 313 315 317 318 317 318 319 321
298 301 302 302 303 302 301 301 302 302 298 298 301 303 303 307 305 305 308 310 311 312 312 313 315 314 315 318 318 317 317 318 318 315 316 314 318 315 316 314 315 317 316 315 316 315 316
299 299 300 301 303 302 301 302 302 302 298 300 300 301 303 305 307 305 305 308 311 312 312 312 313 314 315 314 315 314 315 315 317 317 316 315 316 317 319 314 316 317 317 317 316 316 317
300 300 299 299 300 303 301 302 302 302 298 300 299 301 303 305 308 307 305 307 309 312 312 313 312 313 312 313 313 313 315 315 315 315 315 315 315 314 318 312 320 319 313 314 316 316 314
302 300 300 298 299 303 301 302 302 302 297 300 299 300 303 305 307 308 307 306 310 311 311 312 313 313 313 314 314 313 314 316 316 315 315 314 313 314 319 318 316 314 314 315 316 316 313
304 301 300 299 299 303 301 302 302 301 297 298 299 299 303 305 307 308 309 306 309 311 310 311 312 312 313 312 313 315 314 318 321 317 312 311 311 319 311 319 320 317 313 311 312 317 313
301 300 299 299 299 301 301 301 302 300 297 298 298 298 301 304 304 306 309 309 307 310 310 309 311 312 312 308 311 314 318 318 322 319 317 314 312 317 312 319 317 313 311 310 320 319 311
300 300 299 299 301 302 302 301 301 300 297 297 297 298 299 301 304 304 307 309 308 309 309 308 311 312 311 312 311 313 314 317 318 317 317 319 318 317 312 316 320 312 309 315 316 310 311
300 299 299 299 302 301 301 301 301 300 297 297 297 298 299 300 303 303 306 308 308 309 309 310 310 311 312 313 310 311 312 310 317 319 313 320 318 319 318 320 315 311 315 313 313 313 312

GFSGBSN_850_thetae_075.txt.gz
Theta_e
304 303 303 304 307 307 305 304 302 300 300 300 300 299 299 300 302 306 308 310 312 311 309 315 317 318 315 315 316 315 317 317 317 315 317 317 318 319 321 321 321 321 320 321 324 323 326
303 303 303 303 303 305 306 306 305 304 301 300 300 300 299 299 299 301 304 305 306 307 307 313 314 317 317 316 314 314 313 316 318 317 317 318 320 320 321 321 321 322 322 323 325 325 326
301 301 302 302 303 304 304 305 306 305 304 302 300 299 300 299 299 299 300 302 302 303 305 308 310 315 316 315 314 314 312 318 319 318 318 318 319 319 321 322 321 324 324 324 325 325 325
303 302 301 301 302 302 303 303 303 304 305 304 303 301 300 300 299 299 299 300 300 302 303 306 308 314 316 314 314 313 314 319 319 319 319 320 320 320 321 321 321 324 324 325 325 326 325
305 304 303 302 301 301 300 301 303 304 304 305 305 304 301 300 299 299 299 300 300 300 302 305 311 316 315 314 313 313 313 317 320 319 319 320 320 321 322 321 322 324 324 324 325 323 324
303 303 304 303 302 301 301 300 300 301 303 303 305 304 304 301 299 299 299 300 300 305 308 309 314 315 313 315 315 314 313 315 319 320 320 320 320 323 323 323 322 324 325 322 321 323 323
293 294 295 300 303 301 301 301 300 299 301 302 304 304 304 304 301 299 299 304 314 317 317 314 316 313 315 314 315 316 315 315 319 320 322 321 323 323 323 323 322 322 322 322 322 323 322
293 293 293 293 293 297 299 300 300 301 299 301 303 304 304 304 304 301 299 310 312 316 313 311 312 313 316 317 318 317 317 317 319 321 322 323 323 323 323 321 321 322 322 322 323 322 322
293 293 293 293 293 293 293 297 300 300 300 298 300 303 304 303 304 302 304 311 313 315 316 313 313 313 312 313 316 318 317 318 320 321 322 323 323 322 322 321 321 322 323 323 324 323 323
294 294 293 293 293 293 293 294 299 300 301 300 299 301 303 303 302 308 310 312 315 317 316 313 317 317 315 313 315 315 318 317 320 321 321 322 321 322 322 322 323 323 323 322 323 323 325
293 293 293 293 293 293 293 293 299 300 299 302 300 298 301 302 307 310 316 316 317 318 311 316 316 316 316 315 314 315 316 317 319 320 321 321 321 322 322 322 322 323 323 323 324 324 324
292 292 292 292 293 293 293 294 294 300 299 300 301 299 298 302 303 307 313 316 319 317 311 315 318 317 318 316 315 316 315 318 317 320 320 321 320 321 322 322 322 323 323 323 324 325 326
291 292 293 294 295 297 297 297 297 297 300 300 301 300 297 301 304 307 309 312 315 311 312 314 318 319 319 318 315 317 317 320 320 320 321 321 321 321 321 323 323 323 324 327 327 326 326
297 297 298 299 298 299 300 300 301 300 299 301 301 301 298 300 302 308 309 313 312 310 311 317 317 321 320 318 317 317 318 320 319 319 321 321 321 321 322 323 323 323 324 326 328 326 326
299 300 300 300 301 301 301 301 301 301 300 300 300 301 301 301 302 305 306 315 313 311 312 312 317 319 321 320 317 317 318 319 319 320 321 321 321 321 322 322 323 324 324 324 326 324 325
300 300 300 300 300 300 300 301 301 301 301 300 301 301 302 302 303 304 306 310 311 311 311 313 315 316 320 321 316 317 318 318 319 319 320 320 321 321 321 321 322 323 324 324 324 324 327
300 300 300 301 301 301 301 301 301 301 301 301 301 302 302 302 302 304 306 309 312 310 310 313 315 316 317 322 317 317 318 318 319 319 320 321 321 321 321 322 322 322 324 324 324 325 326
300 300 300 300 300 300 300 301 301 301 301 301 301 303 303 303 304 304 306 309 309 311 311 313 314 318 316 317 320 317 317 318 318 320 320 320 321 322 321 322 321 322 323 323 324 323 324
300 300 300 301 301 301 300 300 301 301 301 301 301 301 303 303 305 305 306 307 308 310 311 314 316 317 320 319 320 319 318 318 318 319 321 321 320 322 322 321 322 322 323 323 324 324 324
301 301 300 300 301 302 301 301 301 301 301 301 299 303 304 303 303 306 306 307 308 307 311 311 315 315 317 319 320 319 319 318 318 318 319 321 320 321 323 321 321 321 320 321 322 328 324
299 298 297 297 299 300 302 301 301 301 301 301 300 304 304 304 305 307 306 306 307 309 308 310 313 315 316 316 318 318 320 318 317 316 319 321 321 320 320 320 320 319 320 320 320 321 323
298 297 296 295 297 297 300 301 301 301 301 302 300 304 303 305 304 307 306 307 307 308 309 310 314 314 315 315 318 315 317 319 319 319 319 321 322 320 320 320 319 319 319 319 319 319 320
298 298 297 295 297 298 298 301 302 301 301 302 301 302 304 305 307 307 309 307 307 308 309 309 311 313 314 315 318 317 317 317 317 319 321 321 323 321 322 320 320 323 319 319 320 320 320
297 297 297 298 298 298 299 298 301 301 301 301 302 303 305 306 307 308 307 307 307 307 309 309 310 313 312 313 316 315 315 315 315 315 317 322 322 324 326 324 327 321 320 320 320 320 320
298 298 299 299 299 299 299 299 300 302 301 301 302 303 304 309 307 306 307 307 306 307 309 310 309 311 311 315 316 315 314 315 314 314 316 317 322 324 328 326 321 320 319 320 320 320 320
300 300 300 300 300 299 300 300 300 301 301 300 302 302 304 308 309 306 308 307 308 307 309 309 310 311 312 315 316 314 315 311 310 316 318 316 321 326 325 326 326 321 320 320 320 324 321
300 300 301 301 301 301 300 300 300 301 300 300 301 302 303 305 304 305 306 308 307 307 310 308 310 312 313 317 319 319 316 311 312 318 321 322 322 326 327 329 322 320 320 320 323 323 320
300 301 300 300 301 301 300 301 300 301 301 301 301 302 304 304 305 304 307 306 307 307 310 308 312 314 317 317 318 316 317 314 314 313 316 323 324 327 326 331 328 319 318 321 322 321 321
300 300 301 300 301 302 301 301 300 301 301 301 301 302 303 304 305 307 308 308 308 307 307 308 311 313 314 316 318 317 322 324 316 318 314 322 322 324 323 324 322 318 320 319 320 321 322